Regional Weather Roundup
Issued by NWS Cleveland, OH

Home | Current Version | Previous Version | Graphics & Text | Print | Product List | Glossary On
Versions: 1 2 3 4 5 6 7 8 9 10 11 12 13 14 15 16 17 18 19 20 21 22 23 24 25 26 27 28 29 30 31 32 33 34 35 36 37 38 39 40 41 42 43 44 45 46 47 48 49 50
000
ASUS41 KCLE 282310
RWRCLE
OHIO REGIONAL WEATHER ROUNDUP
NATIONAL WEATHER SERVICE CLEVELAND, OH
700 PM EDT SAT MAY 28 2016

NOTE: "FAIR" INDICATES FEW OR NO CLOUDS BELOW 12,000 FEET WITH NO
SIGNIFICANT WEATHER AND/OR OBSTRUCTIONS TO VISIBILITY.

OHZ001>008-015>018-024>027-034-035-043-044-290000-
   NORTHWEST OHIO

CITY           SKY/WX    TMP DP  RH WIND       PRES   REMARKS
DEFIANCE       LGT RAIN  81  63  54 S14G23    30.01S
FINDLAY        CLOUDY    79  65  62 S13       30.04S
TOLEDO EXPRESS CLOUDY    81  63  54 S9        30.02S
TOLEDO EXEC    CLOUDY    77  64  64 S12       30.04S
LIMA           MOSUNNY   77  69  76 S8        30.05S
$$

OHZ009>014-019>023-028>033-038-089-290000-
   NORTHEAST OHIO

CITY           SKY/WX    TMP DP  RH WIND       PRES   REMARKS
CLE-HOPKINS    CLOUDY    73  67  81 W8        30.10R
CLE-LAKEFRONT  MOSUNNY   70  66  87 W16       30.08R
CUY CO. ARPT   PTSUNNY   84  70  61 W17G29    30.05S
LORAIN-ELYRIA  CLOUDY    70  66  87 NW5       30.09F
ASHTABULA      SUNNY     80  74  81 E3        30.06F
AKRON-CANTON   MOSUNNY   85  63  47 SW10      30.07S
WOOSTER        MOSUNNY   77  61  57 W16       30.10R
MANSFIELD      CLOUDY    73  68  84 SE6       30.11R
YOUNGSTOWN     MOSUNNY   86  62  44 SW9       30.07S
$$

OHZ042-051>053-060>062-070>072-077>081-290000-
  SOUTHWEST OHIO

CITY           SKY/WX    TMP DP  RH WIND       PRES   REMARKS
CINC-COVINGTON PTSUNNY   80  62  54 S8        30.07S
CINC-LUNKEN    MOSUNNY   81  65  58 SW10      30.06S
HAMILTON       MOSUNNY   81  66  60 SW6       30.07R
DAYTON         PTSUNNY   79  65  62 S9        30.08R
WRIGHT-PAT AFB PTSUNNY   77  73  85 SE2       30.06S
DAYTON GENERAL MOSUNNY   82  61  48 SW12      30.07R
WILMINGTON     SUNNY     81  67  62 SW9       30.08S
$$

OHZ036-037-039>041-045>050-054>059-063>069-073>076-082>088-290000-
  CENTRAL AND SOUTHEAST OHIO

CITY           SKY/WX    TMP DP  RH WIND       PRES   REMARKS
COLUMBUS       CLOUDY    76  69  79 CALM      30.07S
OSU AIRPORT    CLOUDY    74  69  85 NE5       30.08R
BOLTON FIELD   SUNNY     79  70  73 CALM      30.08R
RICKENBACK AFB CLOUDY    78  67  68 E6        30.07R
NEWARK         LGT RAIN  76  66  71 W5        30.09R
MARION         CLOUDY    71  65  81 S7        30.08F
LANCASTER      PTSUNNY   77  70  79 E3        30.09S
ZANESVILLE     MOSUNNY   85  65  51 SW8       30.08R
NEW PHILLY     MOSUNNY   88  63  43 S7        30.07S
$$




USA.gov is the U.S. government's official web portal to all federal, state and local government web resources and services.